• en France
  • Liste des pays
  • À 7 jours
  • Température de l'eau
  • Carte satellitaire
  • Carte météo
  • Widgets météo
  • user-avatar
    Se connecter

    Météo par heure à Olesin

    Ce jour, 16 Octobre, Mardi

    Heure Température Précipitation Vent Pression Humidité
    00:00 +14°C° 0 mm 2 m/s 757 mmHg 60%
    01:00 +14°C° 0 mm 3 m/s 757 mmHg 60%
    02:00 +14°C° 0 mm 2 m/s 757 mmHg 60%
    03:00 +14°C° 0 mm 2 m/s 757 mmHg 60%
    04:00 +13°C° 0 mm 2 m/s 757 mmHg 60%
    05:00 +13°C° 0 mm 2 m/s 757 mmHg 60%
    06:00 +13°C° 0 mm 2 m/s 758 mmHg 60%
    07:00 +13°C° 0 mm 2 m/s 758 mmHg 61%
    08:00 +15°C° 0 mm 2 m/s 758 mmHg 55%
    09:00 +17°C° 0 mm 2 m/s 758 mmHg 50%
    10:00 +18°C° 0 mm 2 m/s 758 mmHg 44%
    11:00 +19°C° 0 mm 2 m/s 758 mmHg 42%
    12:00 +21°C° 0 mm 2 m/s 758 mmHg 40%
    13:00 +22°C° 0 mm 3 m/s 758 mmHg 38%
    14:00 +21°C° 0 mm 2 m/s 758 mmHg 41%
    15:00 +21°C° 0 mm 2 m/s 758 mmHg 44%
    16:00 +20°C° 0 mm 2 m/s 758 mmHg 47%
    17:00 +19°C° 0 mm 2 m/s 758 mmHg 50%
    18:00 +17°C° 0 mm 2 m/s 758 mmHg 53%
    19:00 +16°C° 0 mm 2 m/s 758 mmHg 56%
    20:00 +16°C° 0 mm 2 m/s 758 mmHg 58%
    21:00 +15°C° 0 mm 2 m/s 758 mmHg 61%
    22:00 +15°C° 0 mm 2 m/s 758 mmHg 63%
    23:00 +14°C° 0 mm 2 m/s 758 mmHg 64%

    Demain, 17 Octobre, Mercredi

    Heure Température Précipitation Vent Pression Humidité
    00:00 +14°C° 0 mm 2 m/s 758 mmHg 66%
    01:00 +14°C° 0 mm 1 m/s 758 mmHg 68%
    02:00 +13°C° 0 mm 2 m/s 758 mmHg 70%
    03:00 +13°C° 0 mm 2 m/s 758 mmHg 71%
    04:00 +12°C° 0 mm 2 m/s 758 mmHg 72%
    05:00 +12°C° 0 mm 2 m/s 758 mmHg 73%
    06:00 +12°C° 0 mm 2 m/s 758 mmHg 73%
    07:00 +12°C° 0 mm 2 m/s 759 mmHg 74%
    08:00 +14°C° 0 mm 2 m/s 759 mmHg 67%
    09:00 +16°C° 0 mm 2 m/s 759 mmHg 59%
    10:00 +18°C° 0 mm 2 m/s 759 mmHg 52%
    11:00 +19°C° 0 mm 2 m/s 759 mmHg 49%
    12:00 +20°C° 0 mm 2 m/s 758 mmHg 46%
    13:00 +21°C° 0 mm 2 m/s 758 mmHg 43%
    14:00 +21°C° 0 mm 2 m/s 758 mmHg 45%
    15:00 +20°C° 0 mm 2 m/s 758 mmHg 48%
    16:00 +21°C° 0 mm 1 m/s 758 mmHg 50%
    17:00 +19°C° 0 mm 1 m/s 758 mmHg 54%
    18:00 +17°C° 0 mm 2 m/s 758 mmHg 57%
    19:00 +16°C° 0 mm 2 m/s 758 mmHg 60%
    20:00 +16°C° 0 mm 2 m/s 758 mmHg 61%
    21:00 +15°C° 0 mm 2 m/s 758 mmHg 63%
    22:00 +15°C° 0 mm 2 m/s 758 mmHg 64%
    23:00 +14°C° 0 mm 1 m/s 758 mmHg 66%

    Après-demain, 18 Octobre, Jeudi

    Heure Température Précipitation Vent Pression Humidité
    00:00 +14°C° 0 mm 1 m/s 758 mmHg 68%
    01:00 +13°C° 0 mm 1 m/s 758 mmHg 70%
    02:00 +13°C° 0 mm 1 m/s 758 mmHg 72%
    03:00 +13°C° 0 mm 1 m/s 758 mmHg 74%
    04:00 +12°C° 0 mm 1 m/s 758 mmHg 75%
    05:00 +12°C° 0 mm 1 m/s 758 mmHg 77%
    06:00 +12°C° 0 mm 1 m/s 758 mmHg 78%
    07:00 +12°C° 0 mm 1 m/s 758 mmHg 79%
    08:00 +14°C° 0 mm 1 m/s 758 mmHg 73%
    09:00 +15°C° 0 mm 1 m/s 758 mmHg 66%
    10:00 +18°C° 0 mm 1 m/s 758 mmHg 59%
    11:00 +19°C° 0 mm 1 m/s 758 mmHg 56%
    12:00 +19°C° 0 mm 2 m/s 758 mmHg 53%
    13:00 +20°C° 0 mm 2 m/s 758 mmHg 49%
    14:00 +20°C° 0 mm 2 m/s 758 mmHg 52%
    15:00 +19°C° 0 mm 2 m/s 757 mmHg 54%
    16:00 +19°C° 0 mm 2 m/s 757 mmHg 57%
    17:00 +18°C° 0 mm 2 m/s 758 mmHg 62%
    18:00 +16°C° 0 mm 2 m/s 758 mmHg 67%
    19:00 +15°C° 0 mm 2 m/s 758 mmHg 72%
    20:00 +14°C° 0 mm 2 m/s 759 mmHg 76%
    21:00 +14°C° 0 mm 2 m/s 759 mmHg 81%
    22:00 +14°C° 0 mm 2 m/s 759 mmHg 85%
    23:00 +13°C° 0 mm 2 m/s 759 mmHg 86%

    19 Octobre, Vendredi

    Heure Température Précipitation Vent Pression Humidité
    00:00 +13°C° 0 mm 2 m/s 759 mmHg 88%
    01:00 +13°C° 0 mm 2 m/s 760 mmHg 89%
    02:00 +13°C° 0.1 mm 2 m/s 760 mmHg 88%
    03:00 +13°C° 0.1 mm 2 m/s 760 mmHg 86%
    04:00 +12°C° 0.1 mm 2 m/s 760 mmHg 85%
    05:00 +12°C° 0 mm 2 m/s 760 mmHg 85%
    06:00 +10°C° 0 mm 2 m/s 760 mmHg 85%
    07:00 +9°C° 0 mm 2 m/s 760 mmHg 86%
    08:00 +12°C° 0 mm 2 m/s 761 mmHg 79%
    09:00 +12°C° 0 mm 3 m/s 761 mmHg 72%
    10:00 +13°C° 0 mm 3 m/s 761 mmHg 66%
    11:00 +14°C° 0 mm 3 m/s 761 mmHg 61%
    12:00 +16°C° 0 mm 3 m/s 761 mmHg 56%
    13:00 +17°C° 0 mm 3 m/s 761 mmHg 51%
    14:00 +16°C° 0 mm 2 m/s 761 mmHg 53%
    15:00 +16°C° 0 mm 2 m/s 761 mmHg 55%
    16:00 +15°C° 0 mm 2 m/s 761 mmHg 57%
    17:00 +14°C° 0 mm 2 m/s 761 mmHg 62%
    18:00 +13°C° 0 mm 2 m/s 761 mmHg 67%
    19:00 +10°C° 0 mm 2 m/s 762 mmHg 72%
    20:00 +10°C° 0 mm 2 m/s 762 mmHg 75%
    21:00 +9°C° 0 mm 2 m/s 762 mmHg 79%
    22:00 +9°C° 0 mm 2 m/s 762 mmHg 82%
    23:00 +8°C° 0 mm 2 m/s 762 mmHg 84%

    20 Octobre, Samedi

    Heure Température Précipitation Vent Pression Humidité
    00:00 +8°C° 0 mm 2 m/s 762 mmHg 86%
    01:00 +7°C° 0 mm 2 m/s 762 mmHg 88%
    02:00 +7°C° 0 mm 2 m/s 762 mmHg 89%
    03:00 +6°C° 0 mm 2 m/s 762 mmHg 90%
    04:00 +6°C° 0 mm 2 m/s 762 mmHg 91%
    05:00 +6°C° 0 mm 2 m/s 762 mmHg 91%
    06:00 +6°C° 0 mm 2 m/s 762 mmHg 90%
    07:00 +6°C° 0 mm 2 m/s 762 mmHg 90%
    08:00 +7°C° 0 mm 2 m/s 762 mmHg 82%
    09:00 +9°C° 0 mm 2 m/s 762 mmHg 75%
    10:00 +10°C° 0 mm 2 m/s 763 mmHg 67%
    11:00 +11°C° 0 mm 3 m/s 762 mmHg 63%
    12:00 +11°C° 0 mm 3 m/s 762 mmHg 59%
    13:00 +12°C° 0 mm 3 m/s 762 mmHg 55%
    14:00 +12°C° 0 mm 3 m/s 762 mmHg 56%
    15:00 +11°C° 0 mm 3 m/s 762 mmHg 57%
    16:00 +11°C° 0 mm 3 m/s 762 mmHg 59%
    17:00 +10°C° 0 mm 3 m/s 762 mmHg 62%
    18:00 +10°C° 0 mm 2 m/s 762 mmHg 66%
    19:00 +9°C° 0 mm 2 m/s 763 mmHg 69%
    20:00 +9°C° 0.1 mm 2 m/s 763 mmHg 73%
    21:00 +9°C° 0.1 mm 2 m/s 763 mmHg 77%
    22:00 +8°C° 0.1 mm 2 m/s 763 mmHg 80%
    23:00 +8°C° 0.1 mm 2 m/s 763 mmHg 84%

    21 Octobre, Dimanche

    Heure Température Précipitation Vent Pression Humidité
    00:00 +7°C° 0.1 mm 2 m/s 763 mmHg 87%
    01:00 +7°C° 0.1 mm 2 m/s 763 mmHg 90%
    02:00 +7°C° 0 mm 2 m/s 763 mmHg 92%
    03:00 +6°C° 0 mm 2 m/s 763 mmHg 93%
    04:00 +6°C° 0 mm 2 m/s 763 mmHg 94%
    05:00 +6°C° 0 mm 2 m/s 763 mmHg 95%
    06:00 +5°C° 0 mm 2 m/s 763 mmHg 95%
    07:00 +5°C° 0 mm 2 m/s 764 mmHg 96%
    08:00 +7°C° 0 mm 2 m/s 764 mmHg 89%
    09:00 +9°C° 0 mm 2 m/s 764 mmHg 82%
    10:00 +10°C° 0 mm 2 m/s 764 mmHg 74%
    11:00 +12°C° 0 mm 2 m/s 764 mmHg 69%
    12:00 +13°C° 0 mm 2 m/s 764 mmHg 64%
    13:00 +14°C° 0 mm 2 m/s 764 mmHg 59%
    14:00 +14°C° 0 mm 1 m/s 764 mmHg 60%
    15:00 +13°C° 0 mm 1 m/s 763 mmHg 62%
    16:00 +13°C° 0 mm 1 m/s 763 mmHg 63%
    17:00 +12°C° 0 mm 1 m/s 763 mmHg 67%
    18:00 +11°C° 0 mm 1 m/s 763 mmHg 71%
    19:00 +10°C° 0 mm 1 m/s 763 mmHg 74%
    20:00 +9°C° 0 mm 1 m/s 763 mmHg 76%
    21:00 +8°C° 0 mm 2 m/s 764 mmHg 78%
    22:00 +7°C° 0 mm 2 m/s 764 mmHg 80%
    23:00 +7°C° 0 mm 2 m/s 763 mmHg 82%
    Voir plus